Wind_Speed
3 6 11 17 22 32 35 36 35 33 33 34 30 29 27 25 24 22 23 18 12 16 17 15 12 2 6 12 14 13 19 23 23 31 32 23 20 23 23 20 23 25 27 27 27 31 40 42 30
20 9 2 10 18 25 27 32 34 31 34 35 33 29 26 25 25 24 25 25 18 20 17 15 20 14 19 13 14 15 13 27 27 25 27 26 23 22 21 17 22 23 25 27 29 32 34 40 35
29 22 12 5 8 17 24 26 29 36 37 36 36 33 36 34 27 30 33 24 20 29 28 28 23 17 17 14 14 17 21 27 21 20 30 32 22 17 18 19 22 22 27 24 27 33 30 37 39
27 24 19 12 4 4 11 20 24 25 33 39 38 34 29 27 34 27 23 31 36 34 32 37 25 19 15 25 20 18 22 21 13 23 27 25 22 16 15 22 24 22 28 27 24 29 27 37 41
17 24 19 21 19 16 9 3 13 21 26 30 30 45 45 28 25 28 31 35 38 40 33 35 32 20 20 18 22 23 19 19 17 21 23 23 22 18 13 17 21 24 28 28 25 28 28 33 38
12 8 10 14 11 13 14 11 4 9 17 23 30 39 44 45 39 33 28 31 29 37 39 36 27 22 24 30 29 28 24 27 28 27 14 18 19 25 7 15 13 19 23 26 24 24 27 27 31
11 9 11 8 9 13 15 9 4 3 8 13 18 29 40 45 42 31 34 34 35 30 35 40 35 29 25 35 26 24 28 23 12 5 13 31 22 24 9 17 16 14 19 23 25 19 23 25 30
14 12 11 10 13 15 16 1 5 6 8 4 9 14 20 30 36 37 23 35 35 39 40 40 37 35 33 29 25 29 16 15 7 14 25 26 21 22 8 12 14 10 14 19 23 21 19 22 24
14 12 11 8 9 13 6 2 3 5 6 9 6 7 14 20 24 24 18 25 23 30 49 43 36 41 43 35 24 20 21 18 22 22 24 23 18 27 2 2 6 11 8 14 15 17 19 21 23
12 11 11 9 10 7 4 4 3 7 7 11 13 9 8 11 16 20 17 15 26 24 31 42 37 42 38 38 24 27 33 27 21 24 18 18 27 24 12 3 4 4 6 12 11 13 14 16 18
9 8 9 8 9 7 6 7 5 5 6 9 12 11 8 7 9 9 13 16 20 22 29 35 28 27 32 27 33 35 34 30 25 20 20 19 15 7 6 11 2 9 3 4 7 10 11 12 13
13 12 10 8 8 7 6 8 10 1 3 10 12 9 12 6 7 6 5 6 13 17 24 23 23 25 27 32 27 32 36 37 31 25 26 22 20 19 14 16 15 5 4 3 7 6 11 12 9
11 15 12 7 7 6 6 6 7 3 3 8 11 10 15 13 10 7 8 6 10 16 26 29 22 22 20 22 23 27 28 24 23 22 27 22 21 11 11 16 16 13 16 1 3 3 6 11 8
16 16 13 9 5 6 5 3 5 4 4 3 9 11 10 17 11 7 6 9 9 13 14 20 28 25 26 22 20 17 17 17 20 24 24 21 15 11 13 17 15 19 18 10 4 4 4 7 5
10 13 12 11 6 3 8 9 5 7 6 1 6 4 11 13 11 7 5 6 9 9 11 16 18 22 26 25 24 16 17 15 15 19 17 14 14 14 11 13 11 15 15 10 9 8 5 3 4
19 21 10 12 7 3 6 5 5 8 7 6 7 8 13 12 9 7 7 5 6 13 13 13 16 20 23 25 26 24 19 22 19 15 16 16 19 15 11 16 14 17 15 9 11 12 8 8 8
9 24 26 20 9 9 10 12 8 6 6 11 15 15 15 7 10 11 12 10 9 10 12 15 14 16 18 20 25 25 27 25 20 19 6 11 15 13 13 18 17 20 20 11 11 11 11 12 13
13 15 23 17 14 11 10 10 9 11 10 13 16 18 14 15 16 14 14 15 15 16 14 14 16 16 15 16 18 22 29 28 25 24 26 12 16 7 9 13 22 19 14 13 11 11 12 13 14
29 24 16 20 13 6 22 14 14 13 16 21 25 17 14 15 16 18 16 19 21 15 14 16 16 18 19 16 14 21 24 25 24 26 26 19 20 22 16 17 16 16 17 17 15 15 15 16 17
29 44 24 24 13 13 23 10 3 6 13 22 23 21 18 18 17 15 16 16 15 11 11 16 17 15 17 19 18 19 18 19 23 20 28 25 22 22 20 21 19 20 21 16 17 17 16 17 18
27 33 28 21 15 9 6 6 8 8 16 19 29 22 20 17 14 17 15 15 15 16 13 13 12 12 14 17 15 22 18 17 28 17 28 30 27 24 24 20 21 21 20 18 16 16 17 17 19
19 21 20 19 14 6 7 8 9 9 14 22 32 26 21 19 16 15 17 18 21 21 18 12 11 12 11 12 15 25 20 18 25 30 21 24 24 24 27 31 28 24 21 19 16 17 18 18 20
22 23 17 14 14 9 8 10 19 11 19 26 33 28 24 22 22 17 16 19 23 25 25 16 10 9 8 11 15 26 22 21 23 28 29 23 23 28 31 32 29 25 21 19 18 17 16 17 14
25 24 18 16 16 12 10 12 15 17 16 17 19 24 39 30 30 21 19 18 22 23 22 18 14 9 7 7 15 28 29 26 28 27 28 28 30 27 28 30 28 24 20 20 21 16 17 15 15
28 26 21 18 18 19 14 12 15 17 15 28 24 28 39 39 33 23 19 20 22 24 23 22 19 16 11 7 8 17 27 30 28 27 26 25 24 25 24 23 24 26 26 22 21 17 17 14 17
30 26 22 24 24 22 15 13 25 25 27 35 50 40 33 37 34 25 22 21 24 24 24 26 24 19 16 9 8 7 11 15 19 21 24 24 22 23 20 23 23 27 29 26 24 22 17 14 15
33 28 30 27 27 25 18 20 22 34 35 34 41 44 42 40 32 26 24 23 22 24 26 28 27 22 20 14 12 9 9 10 8 6 11 17 21 22 22 22 29 31 30 29 28 25 21 18 14
34 36 32 31 31 31 27 27 31 29 34 49 45 52 39 34 31 24 26 24 23 25 23 23 25 24 22 19 14 15 10 7 5 4 2 5 7 16 23 26 30 30 28 29 29 27 25 22 18
36 36 36 37 34 31 31 37 32 30 31 31 29 41 28 28 31 26 24 20 22 25 18 24 25 28 25 20 21 17 13 9 5 4 4 6 6 7 11 16 21 22 24 25 26 27 27 23 20
37 36 38 35 34 34 33 35 42 31 26 31 27 35 24 21 25 44 28 17 21 25 21 26 27 30 27 23 25 22 18 13 8 7 8 12 11 8 7 6 9 13 16 18 20 21 20 20 19
Wind_Direction
112 210 224 233 237 234 233 231 235 236 237 238 239 243 236 242 240 247 253 247 257 220 229 248 264 4 254 289 306 302 350 332 340 1 351 21 26 16 29 29 20 20 23 23 21 32 30 34 58
43 65 209 235 235 241 239 232 226 231 239 236 237 231 235 248 249 237 241 261 228 203 218 244 272 295 322 310 306 303 339 341 343 30 30 21 25 20 31 37 34 28 36 34 27 36 36 40 55
37 38 22 307 250 232 241 240 236 232 233 238 229 239 242 241 235 232 231 242 245 237 253 268 273 296 317 292 310 307 315 326 330 347 353 4 16 27 45 43 38 37 41 45 37 33 43 39 60
38 32 30 23 13 272 247 238 238 240 240 240 239 238 234 233 240 237 224 217 223 240 248 269 270 274 280 282 296 306 311 314 312 314 334 354 11 43 52 44 44 41 46 45 42 39 44 43 53
22 39 42 54 57 55 42 295 245 245 241 238 239 229 231 222 234 236 229 234 237 243 250 256 263 272 266 294 307 304 307 307 309 324 336 348 3 27 48 50 47 41 44 43 45 43 41 48 48
343 18 20 25 32 15 7 11 352 252 243 239 237 237 239 251 227 236 216 223 240 249 254 255 256 261 277 302 299 293 294 289 277 326 324 9 7 1 45 46 32 25 34 35 38 46 42 44 47
353 347 323 340 317 314 329 352 5 327 248 243 240 237 242 252 250 238 221 225 232 250 248 253 259 261 271 298 283 280 275 274 300 285 5 345 5 6 35 42 19 24 44 38 34 43 47 39 40
341 321 312 304 291 304 318 91 14 32 30 343 261 247 245 248 245 258 230 230 228 241 241 245 249 255 253 275 274 272 244 252 284 294 316 335 352 356 340 40 47 31 28 43 33 33 38 41 40
319 313 309 294 291 301 319 238 314 324 342 6 315 265 254 253 255 254 250 213 229 245 238 239 242 249 252 257 262 268 228 278 284 293 297 309 347 341 281 111 33 42 38 14 10 35 43 38 42
282 297 300 307 299 306 267 186 151 327 358 1 360 317 261 257 250 248 247 220 203 207 220 232 240 245 249 248 241 246 256 271 288 289 284 307 331 329 336 270 17 33 338 337 27 26 37 39 31
281 286 296 296 294 291 274 208 185 322 332 2 358 3 334 290 262 246 221 223 208 228 206 217 224 222 232 233 232 245 257 267 267 274 281 297 313 253 246 276 276 353 302 58 32 33 39 36 39
320 314 303 296 284 287 272 210 210 277 348 46 27 23 30 345 306 311 278 231 215 197 199 203 213 234 237 237 242 246 254 257 263 268 271 280 277 290 282 240 228 214 239 117 82 46 34 32 42
318 309 299 291 295 298 305 219 202 201 148 58 47 39 22 11 8 314 299 279 221 207 201 212 213 224 234 238 239 243 251 253 259 251 255 267 269 245 243 263 258 274 263 203 58 50 26 15 23
301 306 299 305 305 299 307 270 247 219 174 95 11 1 3 354 343 357 313 283 276 239 221 209 219 225 232 236 236 244 235 221 226 237 240 240 234 242 241 269 262 255 266 251 260 300 330 349 2
311 321 317 308 294 302 5 290 245 227 190 243 330 325 333 340 327 319 313 285 269 271 262 247 235 231 231 230 230 235 231 235 234 229 228 224 228 226 250 273 273 264 271 268 293 288 285 287 292
31 302 283 297 281 242 208 160 265 245 216 237 276 261 318 311 304 278 285 290 277 255 259 261 256 244 235 229 226 230 234 237 236 233 231 255 239 228 228 228 248 269 286 275 276 267 270 253 244
12 242 282 294 292 265 233 252 256 268 230 245 290 306 304 265 300 292 269 250 254 261 255 251 258 260 248 237 233 227 230 236 230 224 245 245 212 205 224 223 245 263 268 259 261 256 257 260 250
76 236 267 294 288 289 287 274 279 289 284 266 284 292 290 278 294 297 287 265 268 265 265 258 248 248 254 245 237 229 228 227 223 215 201 162 187 183 216 232 234 242 246 251 261 252 250 250 253
189 226 272 299 274 350 324 282 273 277 279 289 292 280 273 271 291 296 294 289 280 272 274 272 262 249 245 249 249 240 226 222 214 223 230 237 200 184 195 240 245 253 274 257 260 264 245 259 250
219 230 263 270 259 167 220 274 280 297 308 316 312 305 296 279 269 278 286 283 279 276 278 283 277 259 248 249 260 235 229 206 207 222 229 223 217 205 223 257 259 259 242 261 263 257 257 263 255
219 225 233 249 254 229 202 137 212 254 274 313 319 314 302 299 294 269 271 257 258 274 285 298 273 268 267 257 236 203 216 193 198 219 210 221 232 226 215 245 249 254 258 267 265 258 259 264 254
241 240 231 243 251 230 167 177 251 229 281 290 299 309 311 304 296 283 272 261 256 267 278 290 279 286 283 243 199 191 208 198 211 224 228 224 233 232 235 245 247 248 255 269 264 269 268 269 263
234 244 247 248 252 244 215 209 167 242 259 292 304 298 304 319 306 284 269 267 265 264 272 266 268 274 290 242 208 190 202 212 210 214 217 225 231 240 248 241 240 240 252 259 260 259 273 276 267
249 248 251 248 257 256 246 215 214 242 263 262 274 293 293 301 307 293 272 259 262 260 262 249 247 235 246 259 221 198 198 206 221 220 224 229 236 257 241 239 237 240 244 254 255 255 264 270 259
251 251 254 248 253 256 255 252 217 232 246 210 242 272 285 299 298 287 266 261 253 250 250 250 239 226 210 210 229 219 217 216 220 226 228 230 236 240 240 238 245 244 240 255 250 255 260 271 269
255 257 255 252 251 258 271 241 245 255 221 231 232 240 284 294 290 282 265 254 254 247 250 245 234 230 209 179 155 170 191 220 235 239 240 237 236 235 245 243 243 253 242 250 260 257 259 263 283
250 252 248 254 262 263 253 232 234 233 233 254 253 250 274 283 282 279 263 257 248 253 249 235 227 221 209 193 174 166 141 142 149 193 229 240 245 240 231 254 244 244 244 252 260 255 256 255 276
249 248 253 256 258 262 267 257 252 254 249 238 251 264 273 279 282 270 256 256 256 254 250 221 216 216 194 196 182 163 168 169 162 155 248 244 250 251 247 254 252 250 251 251 253 254 255 250 265
242 244 246 250 257 261 265 264 269 270 269 270 267 275 283 286 289 276 255 243 255 252 225 210 211 201 196 198 186 192 193 206 215 259 255 303 285 275 255 254 256 258 257 254 252 254 257 249 256
243 244 246 252 255 254 257 266 264 279 277 283 272 278 283 297 350 293 264 234 234 243 214 211 208 206 210 215 205 204 213 218 250 249 268 286 281 277 279 281 282 268 261 255 243 249 247 246 253
Height
10992 10991 10991 10991 10993 10995 10998 10999 11000 11003 11005 11007 11009 11010 11012 11014 11016 11017 11018 11021 11024 11025 11027 11026 11026 11026 11027 11028 11029 11028 11030 11029 11024 11022 11020 11019 11017 11015 11010 11008 11007 11003 11001 10997 10992 10988 10982 10975 10969
10992 10989 10990 10988 10991 10992 10993 10996 10999 11000 11001 11004 11006 11008 11009 11011 11012 11016 11017 11017 11021 11022 11023 11023 11024 11023 11024 11025 11026 11027 11030 11028 11026 11026 11025 11024 11019 11017 11014 11010 11009 11007 11003 11001 10996 10992 10988 10983 10977
10992 10989 10989 10990 10988 10990 10991 10992 10995 10997 10998 10999 11002 11003 11006 11008 11011 11012 11015 11017 11019 11021 11020 11020 11021 11022 11023 11025 11025 11028 11028 11029 11027 11026 11025 11025 11021 11019 11017 11014 11013 11011 11006 11004 11002 10998 10993 10989 10983
10996 10995 10992 10990 10989 10989 10989 10990 10992 10992 10993 10995 10997 11000 11002 11004 11006 11010 11012 11015 11015 11016 11018 11017 11020 11022 11024 11024 11025 11026 11028 11028 11027 11027 11025 11026 11022 11021 11020 11018 11016 11014 11009 11008 11005 11002 10998 10995 10990
11005 10999 10999 10996 10994 10993 10991 10990 10989 10989 10990 10991 10992 10993 10995 11002 11003 11006 11009 11009 11011 11011 11014 11016 11019 11020 11022 11021 11023 11025 11028 11029 11028 11026 11026 11025 11026 11023 11023 11021 11020 11017 11013 11011 11009 11006 11004 11001 10996
11005 11006 11002 11000 10998 10995 10993 10992 10989 10987 10986 10987 10989 10989 10990 10991 10999 11001 11004 11006 11008 11009 11010 11012 11014 11017 11017 11018 11021 11023 11026 11027 11027 11026 11025 11026 11027 11026 11024 11023 11022 11020 11017 11015 11013 11010 11008 11006 11003
11010 11004 11001 11001 10999 10996 10994 10992 10990 10988 10986 10985 10986 10986 10986 10986 10990 10998 11000 11003 11005 11006 11006 11008 11010 11012 11014 11014 11018 11022 11024 11025 11026 11024 11025 11025 11029 11028 11028 11025 11023 11022 11020 11018 11017 11015 11013 11012 11008
11007 11003 11001 11000 10999 10995 10993 10992 10990 10989 10987 10985 10984 10984 10983 10983 10986 10987 10997 10998 11000 11002 11003 11005 11008 11011 11013 11016 11017 11020 11023 11023 11024 11025 11027 11029 11031 11031 11030 11028 11025 11025 11025 11022 11022 11021 11018 11016 11014
11004 11002 11001 10998 10998 10995 10993 10991 10990 10988 10987 10986 10984 10983 10982 10982 10981 10983 10988 10995 10996 10998 10999 11002 11005 11007 11009 11013 11015 11017 11018 11020 11022 11026 11029 11033 11032 11032 11030 11030 11029 11027 11027 11026 11026 11025 11022 11020 11019
11001 11001 10999 10998 10997 10995 10992 10990 10989 10987 10987 10985 10984 10982 10981 10981 10981 10981 10983 10988 10994 10994 10994 10998 11001 11003 11006 11009 11011 11013 11016 11019 11022 11026 11031 11034 11034 11026 11029 11030 11030 11030 11029 11028 11029 11027 11026 11024 11022
11001 10999 10996 10997 10996 10993 10991 10989 10988 10987 10987 10986 10984 10982 10980 10981 10981 10981 10981 10983 10987 10990 10992 10995 10999 11000 11002 11005 11007 11009 11013 11016 11022 11026 11031 11035 11035 11022 11026 11031 11031 11030 11031 11029 11029 11028 11028 11027 11026
10996 10996 10996 10995 10995 10993 10992 10989 10987 10987 10987 10986 10984 10983 10981 10980 10980 10981 10980 10979 10981 10985 10988 10991 10993 10997 10997 11000 11002 11005 11009 11013 11020 11025 11029 11032 11033 11028 11029 11029 11032 11033 11032 11028 11028 11028 11028 11030 11030
10997 10996 10996 10995 10997 10995 10994 10992 10990 10988 10988 10987 10986 10984 10983 10981 10979 10978 10980 10980 10981 10982 10985 10987 10988 10990 10993 10996 10998 11002 11006 11011 11016 11020 11023 11026 11028 11030 11030 11031 11032 11032 11032 11030 11029 11029 11030 11032 11033
10996 10996 10995 10996 10996 10995 10992 10991 10990 10989 10987 10987 10986 10985 10984 10983 10981 10979 10978 10978 10979 10980 10981 10982 10984 10986 10989 10991 10995 11000 11005 11008 11010 11011 11014 11018 11020 11023 11027 11028 11030 11030 11030 11028 11029 11030 11032 11032 11031
11001 10999 10995 10997 10995 10992 10987 10985 10987 10988 10986 10985 10985 10985 10984 10983 10981 10979 10978 10976 10976 10978 10979 10980 10981 10983 10985 10988 10993 10998 11003 11004 11004 11006 11011 11014 11015 11017 11019 11022 11026 11028 11028 11028 11028 11031 11033 11032 11031
11003 10998 11008 10999 10995 10991 10987 10987 10986 10989 10987 10986 10985 10984 10984 10983 10981 10980 10979 10978 10976 10977 10978 10978 10979 10980 10981 10985 10989 10994 10999 10998 11000 11006 11011 11012 11011 11012 11014 11018 11023 11027 11027 11027 11027 11029 11031 11030 11028
11003 11003 10998 10996 10995 10992 10990 10989 10991 10989 10986 10986 10985 10984 10984 10982 10981 10980 10979 10977 10976 10975 10975 10975 10976 10977 10978 10980 10985 10990 10991 10990 10995 11001 11019 11011 11010 11009 11013 11016 11021 11026 11028 11027 11027 11027 11028 11029 11027
11006 10989 10989 10992 10992 10993 10992 10989 10987 10987 10984 10984 10983 10982 10983 10983 10982 10980 10978 10977 10976 10974 10974 10974 10974 10975 10977 10979 10982 10984 10983 10984 10994 10999 11006 11007 11006 11008 11013 11014 11020 11024 11026 11026 11026 11025 11026 11028 11027
10990 10977 10983 10989 10993 10994 10986 10989 10986 10986 10986 10983 10981 10979 10979 10980 10980 10980 10978 10975 10974 10972 10971 10971 10971 10972 10974 10977 10979 10979 10978 10985 10991 10993 10998 11002 11000 11003 11008 11011 11018 11023 11026 11024 11023 11023 11024 11024 11025
10983 10983 10989 10989 10991 10994 10985 10990 10984 10978 10978 10981 10980 10977 10975 10975 10976 10977 10977 10974 10972 10970 10969 10968 10968 10968 10970 10972 10973 10972 10977 10982 10987 10990 10991 10994 10998 11000 11008 11012 11014 11017 11018 11019 11020 11021 11020 11020 11020
10980 10983 10984 10981 10983 10988 10989 10985 10975 10977 10972 10973 10978 10974 10973 10971 10971 10971 10972 10973 10972 10969 10968 10967 10965 10965 10966 10968 10967 10969 10974 10980 10982 10985 10985 10987 10993 10999 11007 11008 11010 11012 11013 11015 11015 11016 11017 11017 11016
10973 10975 10978 10978 10978 10980 10981 10981 10972 10969 10969 10971 10975 10971 10968 10967 10967 10966 10968 10969 10969 10969 10967 10966 10966 10965 10963 10964 10964 10966 10969 10978 10980 10982 10986 10990 10991 10996 11001 11005 11007 11008 11008 11009 11010 11012 11013 11013 11013
10969 10969 10971 10972 10973 10975 10975 10975 10976 10974 10973 10973 10972 10968 10965 10964 10964 10964 10964 10965 10966 10966 10964 10964 10964 10962 10961 10961 10962 10965 10966 10969 10975 10981 10984 10984 10990 10995 10999 11003 11004 11003 11003 11004 11006 11007 11009 11010 11008
10962 10963 10965 10967 10968 10970 10970 10970 10971 10973 10973 10969 10963 10959 10961 10961 10962 10961 10960 10961 10962 10961 10960 10960 10960 10959 10958 10958 10959 10961 10964 10966 10970 10974 10978 10982 10990 11003 10999 11000 10999 10998 10999 11000 11002 11003 11004 11004 11003
10954 10956 10959 10962 10963 10963 10964 10964 10967 10971 10968 10961 10950 10953 10957 10957 10958 10957 10956 10955 10957 10956 10955 10955 10956 10957 10956 10956 10957 10960 10963 10965 10968 10971 10976 10980 10987 10994 10993 10994 10998 10997 10996 10996 10998 11000 11001 11000 11001
10948 10951 10954 10953 10955 10957 10959 10958 10958 10962 10958 10960 10954 10956 10953 10954 10954 10953 10951 10951 10952 10952 10951 10952 10952 10955 10958 10958 10957 10958 10959 10963 10967 10970 10974 10979 10983 10981 10981 10982 10987 10995 10994 10993 10994 10996 10997 10997 10998
10942 10946 10945 10948 10948 10950 10955 10953 10954 10952 10948 10951 10950 10951 10950 10953 10951 10946 10944 10946 10947 10946 10945 10946 10948 10951 10955 10958 10958 10959 10961 10961 10964 10967 10970 10975 10978 10974 10972 10974 10977 10990 10990 10990 10991 10992 10994 10994 10995
10935 10936 10939 10941 10941 10943 10946 10947 10948 10951 10954 10951 10950 10943 10950 10947 10943 10942 10939 10941 10942 10939 10940 10942 10946 10949 10952 10955 10958 10959 10961 10963 10964 10965 10969 10972 10975 10973 10970 10972 10981 10984 10982 10984 10985 10987 10989 10991 10992
10925 10929 10931 10932 10935 10938 10939 10934 10941 10940 10940 10941 10947 10937 10944 10942 10938 10937 10935 10938 10937 10934 10938 10940 10943 10947 10950 10952 10956 10958 10959 10961 10963 10964 10966 10968 10970 10973 10975 10975 10975 10975 10976 10977 10979 10981 10984 10988 10990
10917 10921 10923 10927 10929 10930 10932 10933 10922 10935 10941 10936 10940 10933 10942 10949 10942 10934 10933 10931 10933 10930 10935 10937 10942 10945 10949 10951 10953 10955 10957 10959 10961 10962 10963 10964 10966 10966 10968 10968 10968 10969 10969 10971 10973 10976 10980 10984 10988